When you browse on this site, cookies collect data to enhance your experience and personalize the content and advertising you see.
Visit our Privacy Policy to learn more. By continuing to use the site, you agree to this use of cookies and data.
  • en France
  • Liste des pays
  • À 7 jours
  • Température de l'eau
  • Carte satellitaire
  • Carte météo
  • Widgets météo
  • user-avatar
    Se connecter

    Météo par heure à Maradi

    Ce jour, 19 Janvier, Samedi

    Heure Température Précipitation Vent Pression Humidité
    00:00 +22°C° 0 mm 4 m/s 729 mmHg 12%
    01:00 +22°C° 0 mm 4 m/s 729 mmHg 13%
    02:00 +22°C° 0 mm 4 m/s 729 mmHg 13%
    03:00 +21°C° 0 mm 4 m/s 729 mmHg 13%
    04:00 +21°C° 0 mm 4 m/s 729 mmHg 14%
    05:00 +21°C° 0 mm 4 m/s 729 mmHg 15%
    06:00 +21°C° 0 mm 4 m/s 729 mmHg 16%
    07:00 +25°C° 0 mm 5 m/s 729 mmHg 14%
    08:00 +27°C° 0 mm 6 m/s 730 mmHg 13%
    09:00 +30°C° 0 mm 7 m/s 730 mmHg 11%
    10:00 +33°C° 0 mm 6 m/s 730 mmHg 10%
    11:00 +36°C° 0 mm 5 m/s 730 mmHg 10%
    12:00 +38°C° 0 mm 4 m/s 729 mmHg 9%
    13:00 +39°C° 0 mm 3 m/s 729 mmHg 9%
    14:00 +39°C° 0 mm 2 m/s 728 mmHg 9%
    15:00 +39°C° 0 mm 1 m/s 728 mmHg 9%
    16:00 +34°C° 0 mm 1 m/s 727 mmHg 12%
    17:00 +31°C° 0 mm 1 m/s 727 mmHg 14%
    18:00 +27°C° 0 mm 1 m/s 727 mmHg 17%
    19:00 +27°C° 0 mm 1 m/s 728 mmHg 17%
    20:00 +26°C° 0 mm 1 m/s 728 mmHg 18%
    21:00 +26°C° 0 mm 2 m/s 728 mmHg 18%
    22:00 +26°C° 0 mm 2 m/s 728 mmHg 17%
    23:00 +26°C° 0 mm 3 m/s 728 mmHg 16%

    Demain, 20 Janvier, Dimanche

    Heure Température Précipitation Vent Pression Humidité
    00:00 +26°C° 0 mm 3 m/s 728 mmHg 15%
    01:00 +25°C° 0 mm 3 m/s 728 mmHg 15%
    02:00 +24°C° 0 mm 2 m/s 728 mmHg 16%
    03:00 +23°C° 0 mm 2 m/s 728 mmHg 17%
    04:00 +23°C° 0 mm 2 m/s 728 mmHg 18%
    05:00 +21°C° 0 mm 2 m/s 728 mmHg 18%
    06:00 +21°C° 0 mm 3 m/s 729 mmHg 19%
    07:00 +24°C° 0 mm 3 m/s 729 mmHg 17%
    08:00 +27°C° 0 mm 4 m/s 730 mmHg 15%
    09:00 +29°C° 0 mm 4 m/s 730 mmHg 13%
    10:00 +31°C° 0 mm 3 m/s 730 mmHg 12%
    11:00 +34°C° 0 mm 3 m/s 730 mmHg 11%
    12:00 +36°C° 0 mm 2 m/s 729 mmHg 9%
    13:00 +37°C° 0 mm 2 m/s 729 mmHg 9%
    14:00 +36°C° 0 mm 1 m/s 728 mmHg 9%
    15:00 +37°C° 0 mm 1 m/s 727 mmHg 9%
    16:00 +34°C° 0 mm 1 m/s 727 mmHg 11%
    17:00 +32°C° 0 mm 2 m/s 727 mmHg 13%
    18:00 +29°C° 0 mm 2 m/s 727 mmHg 15%
    19:00 +29°C° 0 mm 3 m/s 728 mmHg 15%
    20:00 +28°C° 0 mm 3 m/s 729 mmHg 15%
    21:00 +28°C° 0 mm 4 m/s 729 mmHg 16%
    22:00 +27°C° 0 mm 4 m/s 729 mmHg 15%
    23:00 +26°C° 0 mm 4 m/s 729 mmHg 14%

    Après-demain, 21 Janvier, Lundi

    Heure Température Précipitation Vent Pression Humidité
    00:00 +25°C° 0 mm 4 m/s 729 mmHg 13%
    01:00 +25°C° 0 mm 3 m/s 728 mmHg 13%
    02:00 +24°C° 0 mm 3 m/s 728 mmHg 13%
    03:00 +22°C° 0 mm 3 m/s 728 mmHg 13%
    04:00 +22°C° 0 mm 3 m/s 728 mmHg 12%
    05:00 +21°C° 0 mm 3 m/s 729 mmHg 11%
    06:00 +21°C° 0 mm 3 m/s 729 mmHg 10%
    07:00 +24°C° 0 mm 3 m/s 730 mmHg 8%
    08:00 +27°C° 0 mm 4 m/s 730 mmHg 7%
    09:00 +29°C° 0 mm 4 m/s 731 mmHg 5%
    10:00 +32°C° 0 mm 4 m/s 730 mmHg 5%
    11:00 +34°C° 0 mm 3 m/s 730 mmHg 6%
    12:00 +36°C° 0 mm 2 m/s 729 mmHg 6%
    13:00 +36°C° 0 mm 2 m/s 729 mmHg 7%
    14:00 +36°C° 0 mm 1 m/s 728 mmHg 9%
    15:00 +36°C° 0 mm 1 m/s 727 mmHg 10%
    16:00 +34°C° 0 mm 1 m/s 727 mmHg 11%
    17:00 +32°C° 0 mm 2 m/s 727 mmHg 13%
    18:00 +30°C° 0 mm 3 m/s 727 mmHg 14%
    19:00 +29°C° 0 mm 3 m/s 728 mmHg 14%
    20:00 +28°C° 0 mm 3 m/s 728 mmHg 14%
    21:00 +28°C° 0 mm 3 m/s 729 mmHg 13%
    22:00 +27°C° 0 mm 3 m/s 729 mmHg 13%
    23:00 +27°C° 0 mm 3 m/s 728 mmHg 13%

    22 Janvier, Mardi

    Heure Température Précipitation Vent Pression Humidité
    00:00 +26°C° 0 mm 2 m/s 728 mmHg 13%
    01:00 +25°C° 0 mm 2 m/s 728 mmHg 14%
    02:00 +25°C° 0 mm 2 m/s 727 mmHg 15%
    03:00 +24°C° 0 mm 2 m/s 727 mmHg 16%
    04:00 +23°C° 0 mm 2 m/s 727 mmHg 17%
    05:00 +21°C° 0 mm 2 m/s 728 mmHg 19%
    06:00 +20°C° 0 mm 2 m/s 728 mmHg 20%
    07:00 +24°C° 0 mm 2 m/s 729 mmHg 18%
    08:00 +27°C° 0 mm 2 m/s 730 mmHg 15%
    09:00 +30°C° 0 mm 2 m/s 730 mmHg 12%
    10:00 +32°C° 0 mm 1 m/s 730 mmHg 11%
    11:00 +34°C° 0 mm 1 m/s 729 mmHg 9%
    12:00 +36°C° 0 mm 1 m/s 729 mmHg 8%
    13:00 +38°C° 0 mm 3 m/s 728 mmHg 8%
    14:00 +38°C° 0 mm 4 m/s 727 mmHg 7%
    15:00 +40°C° 0 mm 5 m/s 726 mmHg 7%
    16:00 +36°C° 0 mm 4 m/s 726 mmHg 8%
    17:00 +33°C° 0 mm 4 m/s 727 mmHg 9%
    18:00 +30°C° 0 mm 3 m/s 727 mmHg 10%
    19:00 +29°C° 0 mm 3 m/s 727 mmHg 10%
    20:00 +28°C° 0 mm 3 m/s 728 mmHg 10%
    21:00 +27°C° 0 mm 4 m/s 728 mmHg 9%
    22:00 +26°C° 0 mm 4 m/s 728 mmHg 8%
    23:00 +25°C° 0 mm 4 m/s 728 mmHg 7%

    23 Janvier, Mercredi

    Heure Température Précipitation Vent Pression Humidité
    00:00 +25°C° 0 mm 4 m/s 728 mmHg 6%
    01:00 +23°C° 0 mm 4 m/s 727 mmHg 6%
    02:00 +22°C° 0 mm 4 m/s 727 mmHg 6%
    03:00 +21°C° 0 mm 4 m/s 726 mmHg 6%
    04:00 +21°C° 0 mm 4 m/s 727 mmHg 6%
    05:00 +20°C° 0 mm 3 m/s 727 mmHg 6%
    06:00 +19°C° 0 mm 3 m/s 728 mmHg 6%
    07:00 +22°C° 0 mm 3 m/s 728 mmHg 6%
    08:00 +26°C° 0 mm 4 m/s 729 mmHg 5%
    09:00 +28°C° 0 mm 4 m/s 730 mmHg 5%
    10:00 +30°C° 0 mm 4 m/s 729 mmHg 5%
    11:00 +33°C° 0 mm 4 m/s 729 mmHg 4%
    12:00 +35°C° 0 mm 3 m/s 728 mmHg 4%
    13:00 +36°C° 0 mm 4 m/s 727 mmHg 4%
    14:00 +36°C° 0 mm 4 m/s 727 mmHg 5%
    15:00 +37°C° 0 mm 4 m/s 726 mmHg 5%
    16:00 +33°C° 0 mm 3 m/s 726 mmHg 7%
    17:00 +29°C° 0 mm 2 m/s 726 mmHg 9%
    18:00 +25°C° 0 mm 1 m/s 726 mmHg 10%
    19:00 +25°C° 0 mm 2 m/s 727 mmHg 10%
    20:00 +25°C° 0 mm 2 m/s 727 mmHg 10%
    21:00 +25°C° 0 mm 3 m/s 728 mmHg 9%
    22:00 +24°C° 0 mm 3 m/s 728 mmHg 9%
    23:00 +22°C° 0 mm 3 m/s 727 mmHg 8%

    24 Janvier, Jeudi

    Heure Température Précipitation Vent Pression Humidité
    00:00 +21°C° 0 mm 3 m/s 727 mmHg 7%
    01:00 +21°C° 0 mm 3 m/s 727 mmHg 7%
    02:00 +20°C° 0 mm 3 m/s 727 mmHg 7%
    03:00 +20°C° 0 mm 3 m/s 726 mmHg 7%
    04:00 +19°C° 0 mm 3 m/s 727 mmHg 7%
    05:00 +19°C° 0 mm 3 m/s 727 mmHg 7%
    06:00 +18°C° 0 mm 3 m/s 727 mmHg 8%
    07:00 +21°C° 0 mm 3 m/s 728 mmHg 7%
    08:00 +25°C° 0 mm 3 m/s 728 mmHg 7%
    09:00 +27°C° 0 mm 3 m/s 729 mmHg 6%
    10:00 +30°C° 0 mm 2 m/s 728 mmHg 6%
    11:00 +32°C° 0 mm 1 m/s 728 mmHg 6%
    12:00 +34°C° 0 mm 1 m/s 727 mmHg 5%
    13:00 +36°C° 0 mm 2 m/s 727 mmHg 5%
    14:00 +37°C° 0 mm 2 m/s 726 mmHg 5%
    15:00 +37°C° 0 mm 3 m/s 726 mmHg 5%
    16:00 +35°C° 0 mm 3 m/s 726 mmHg 7%
    17:00 +31°C° 0 mm 3 m/s 726 mmHg 8%
    18:00 +28°C° 0 mm 2 m/s 726 mmHg 9%
    19:00 +27°C° 0 mm 2 m/s 727 mmHg 10%
    20:00 +25°C° 0 mm 2 m/s 727 mmHg 10%
    21:00 +24°C° 0 mm 1 m/s 728 mmHg 11%
    22:00 +25°C° 0 mm 2 m/s 728 mmHg 11%
    23:00 +25°C° 0 mm 2 m/s 728 mmHg 11%
    Voir plus